sat.trackr.live / text

‹ back to catalog

HAWK-13C

NORAD 67393 · 2026-004AG

PAYLOAD ACTIVE UNKNOWN

§ Identity

Operator
Country
US
Launch date
2026-01-11
Launch site
AFWTR
Launch vehicle
Mass (kg)
RCS (m²)

External: N2YO · Heavens-Above · Gunter

§ Orbital elements

Epoch: 2026-05-24T22:35:23.142048Z

Period
94.80 min
Inclination
97.4584°
Eccentricity
0.0007161
Mean motion
15.18915459 rev/d
Perigee alt
504.2 km
Apogee alt
514.0 km
Semi-major
6,887.3 km
B*
2.0764e-4
RAAN
144.4782°
Arg perigee
66.7671°
Mean anomaly
293.4317°
Rev number
2,023

§ Raw data

HAWK-13C1 67393U 26004AG  26144.94124007  .00004268  00000+0  20764-3 0  99952 67393  97.4584 144.4782 0007161  66.7671 293.4317 15.18915459 20239

JSON: /api/v1/satellites/67393 · /tle

For live sub-satellite position, see the globe view (requires WebGL).

§ Visibility from observer

Set your observer location to see the next 7 days of passes ≥ 10°. The values pass through the URL so the page stays shareable.

No JS? Fill the form by hand. The geolocation button needs JavaScript.